Time,TemperatureF,DewpointF,PressureIn,WindDirection,WindDirectionDegrees,WindSpeedMPH,WindSpeedGustMPH,Humidity,HourlyPrecipIn,Conditions,Clouds,dailyrainin,SolarRadiationWatts/m^2,SoftwareType,DateUTC
2013-06-20 00:00:00,60.0,32.0,-100.00,WNW,294,7.0,23.0,34,0.00,,,0.00,0.000000,,2013-06-20 07:00:00,
2013-06-20 00:23:00,60.0,32.0,-100.00,WNW,294,7.0,23.0,34,0.00,,,0.00,0.000000,,2013-06-20 07:23:00,
2013-06-20 00:34:00,60.0,32.0,-100.00,WNW,294,7.0,23.0,34,0.00,,,0.00,0.000000,,2013-06-20 07:34:00,
2013-06-20 00:44:00,60.0,32.0,-100.00,WNW,294,7.0,23.0,34,0.00,,,0.00,0.000000,,2013-06-20 07:44:00,
2013-06-20 00:53:00,60.0,32.0,-100.00,WNW,294,7.0,23.0,34,0.00,,,0.00,0.000000,,2013-06-20 07:53:00,
2013-06-20 01:00:00,61.0,29.0,-100.00,WNW,287,8.0,24.0,29,0.00,,,0.00,0.000000,,2013-06-20 08:00:00,
2013-06-20 01:22:00,61.0,29.0,-100.00,WNW,287,8.0,24.0,29,0.00,,,0.00,0.000000,,2013-06-20 08:22:00,
2013-06-20 01:43:00,61.0,29.0,-100.00,WNW,287,8.0,24.0,29,0.00,,,0.00,0.000000,,2013-06-20 08:43:00,
2013-06-20 01:53:00,61.0,29.0,-100.00,WNW,287,8.0,24.0,29,0.00,,,0.00,0.000000,,2013-06-20 08:53:00,
2013-06-20 02:00:00,61.0,27.0,-100.00,West,264,6.0,21.0,27,0.00,,,0.00,0.000000,,2013-06-20 09:00:00,
2013-06-20 02:22:00,61.0,27.0,-100.00,West,264,6.0,21.0,27,0.00,,,0.00,0.000000,,2013-06-20 09:22:00,
2013-06-20 02:33:00,61.0,27.0,-100.00,West,264,6.0,21.0,27,0.00,,,0.00,0.000000,,2013-06-20 09:33:00,
2013-06-20 02:43:00,61.0,27.0,-100.00,West,264,6.0,21.0,27,0.00,,,0.00,0.000000,,2013-06-20 09:43:00,
2013-06-20 02:52:00,61.0,27.0,-100.00,West,264,6.0,21.0,27,0.00,,,0.00,0.000000,,2013-06-20 09:52:00,
2013-06-20 03:00:00,59.0,31.0,-100.00,North,2,3.0,17.0,35,0.00,,,0.00,0.000000,,2013-06-20 10:00:00,
2013-06-20 03:34:00,59.0,31.0,-100.00,North,2,3.0,17.0,35,0.00,,,0.00,0.000000,,2013-06-20 10:34:00,
2013-06-20 03:43:00,59.0,31.0,-100.00,North,2,3.0,17.0,35,0.00,,,0.00,0.000000,,2013-06-20 10:43:00,
2013-06-20 03:53:00,59.0,31.0,-100.00,North,2,3.0,17.0,35,0.00,,,0.00,0.000000,,2013-06-20 10:53:00,
2013-06-20 04:00:00,57.0,30.0,-100.00,ESE,120,0.0,12.0,36,0.00,,,0.00,0.000000,,2013-06-20 11:00:00,
2013-06-20 04:22:00,57.0,30.0,-100.00,ESE,120,0.0,12.0,36,0.00,,,0.00,0.000000,,2013-06-20 11:22:00,
2013-06-20 04:34:00,57.0,30.0,-100.00,ESE,120,0.0,12.0,36,0.00,,,0.00,0.000000,,2013-06-20 11:34:00,
2013-06-20 04:43:00,57.0,30.0,-100.00,ESE,120,0.0,12.0,36,0.00,,,0.00,0.000000,,2013-06-20 11:43:00,
2013-06-20 04:53:00,57.0,30.0,-100.00,ESE,120,0.0,12.0,36,0.00,,,0.00,0.000000,,2013-06-20 11:53:00,
2013-06-20 05:22:00,52.0,30.0,-100.00,North,0,0.0,6.0,43,0.00,,,0.00,0.000000,,2013-06-20 12:22:00,
2013-06-20 05:34:00,52.0,30.0,-100.00,North,0,0.0,6.0,43,0.00,,,0.00,0.000000,,2013-06-20 12:34:00,
2013-06-20 05:43:00,52.0,30.0,-100.00,North,0,0.0,6.0,43,0.00,,,0.00,0.000000,,2013-06-20 12:43:00,
2013-06-20 05:53:00,52.0,30.0,-100.00,North,0,0.0,6.0,43,0.00,,,0.00,0.000000,,2013-06-20 12:53:00,
2013-06-20 06:33:00,51.0,32.0,-100.00,NNW,331,0.0,5.0,48,0.00,,,0.00,0.000000,,2013-06-20 13:33:00,
2013-06-20 06:42:00,51.0,32.0,-100.00,NNW,331,0.0,5.0,48,0.00,,,0.00,0.000000,,2013-06-20 13:42:00,
2013-06-20 06:53:00,51.0,32.0,-100.00,NNW,331,0.0,5.0,48,0.00,,,0.00,0.000000,,2013-06-20 13:53:00,
2013-06-20 07:22:00,49.0,30.0,-100.00,NW,314,1.0,5.0,47,0.00,,,0.00,3.000000,,2013-06-20 14:22:00,
2013-06-20 08:33:00,57.0,30.0,-100.00,North,352,0.0,5.0,35,-99.99,,,-99.99,125.000000,,2013-06-20 15:33:00,
2013-06-20 08:43:00,57.0,30.0,-100.00,North,352,0.0,5.0,35,-99.99,,,-99.99,125.000000,,2013-06-20 15:43:00,
2013-06-20 09:22:00,63.0,31.0,-100.00,East,95,3.0,5.0,30,-99.99,,,0.00,425.000000,,2013-06-20 16:22:00,
2013-06-20 09:33:00,63.0,31.0,-100.00,East,95,3.0,5.0,30,-99.99,,,0.00,425.000000,,2013-06-20 16:33:00,
2013-06-20 09:43:00,63.0,31.0,-100.00,East,95,3.0,5.0,30,-99.99,,,0.00,425.000000,,2013-06-20 16:43:00,
2013-06-20 10:33:00,66.0,29.0,-100.00,East,100,4.0,10.0,25,-99.99,,,0.00,697.000000,,2013-06-20 17:33:00,
2013-06-20 10:43:00,66.0,29.0,-100.00,East,100,4.0,10.0,25,-99.99,,,0.00,697.000000,,2013-06-20 17:43:00,
2013-06-20 10:53:00,66.0,29.0,-100.00,East,100,4.0,10.0,25,-99.99,,,0.00,697.000000,,2013-06-20 17:53:00,
2013-06-20 11:00:00,72.0,31.0,-100.00,ESE,107,5.0,11.0,22,-99.99,,,0.00,946.000000,,2013-06-20 18:00:00,
2013-06-20 11:22:00,72.0,31.0,-100.00,ESE,107,5.0,11.0,22,-99.99,,,0.00,946.000000,,2013-06-20 18:22:00,
2013-06-20 11:33:00,72.0,31.0,-100.00,ESE,107,5.0,11.0,22,-99.99,,,0.00,946.000000,,2013-06-20 18:33:00,
2013-06-20 11:43:00,72.0,31.0,-100.00,ESE,107,5.0,11.0,22,-99.99,,,0.00,946.000000,,2013-06-20 18:43:00,
2013-06-20 11:53:00,72.0,31.0,-100.00,ESE,107,5.0,11.0,22,-99.99,,,0.00,946.000000,,2013-06-20 18:53:00,
2013-06-20 12:00:00,74.0,33.0,-100.00,West,263,9.0,20.0,22,0.00,,,0.00,1150.000000,,2013-06-20 19:00:00,
2013-06-20 12:34:00,74.0,33.0,-100.00,West,263,9.0,20.0,22,0.00,,,0.00,1150.000000,,2013-06-20 19:34:00,
2013-06-20 12:43:00,74.0,33.0,-100.00,West,263,9.0,20.0,22,0.00,,,0.00,1150.000000,,2013-06-20 19:43:00,
2013-06-20 12:52:00,74.0,33.0,-100.00,West,263,9.0,20.0,22,0.00,,,0.00,1150.000000,,2013-06-20 19:52:00,
2013-06-20 13:00:00,75.0,32.0,-100.00,West,278,10.0,20.0,21,0.00,,,0.00,1293.000000,,2013-06-20 20:00:00,
2013-06-20 13:33:00,75.0,32.0,-100.00,West,278,10.0,20.0,21,0.00,,,0.00,1293.000000,,2013-06-20 20:33:00,
2013-06-20 13:43:00,75.0,32.0,-100.00,West,278,10.0,20.0,21,0.00,,,0.00,1293.000000,,2013-06-20 20:43:00,
2013-06-20 13:52:00,75.0,32.0,-100.00,West,278,10.0,20.0,21,0.00,,,0.00,1293.000000,,2013-06-20 20:52:00,